Location: ??????
(56.0120°N, 39.1740°E)
Time: 06:43:33
(UTC+00:00)

SL-16 R/B - Pass Details

Date: 14 April 2026
Orbit: 839 x 849 km, 71.0° (Epoch: 12 May)

Event Time Altitude Azimuth Distance (km) Brightness Sun altitude
Exits shadow 19:31:29 40° 153° (SSE) 1,220 2.5 -20.4°
Maximum altitude 19:32:50 49° 114° (ESE) 1,087 2.4 -20.4°
Drops below altitude 10° 19:38:17 10° 41° (NE) 2,479 4.9 -20.8°
Sets 19:40:48 0° 36° (NE) 3,419 5.7 -21.0°
